Location: Caltech
(34.1382°N, 118.1253°W)
Time: 12:43:03
(UTC-08:00)

Lacrosse 5 - Visible Passes

Search period start: 20 November 2014 00:00
Search period end: 30 November 2014 00:00
Orbit: 706 x 721 km, 57.0° (Epoch: 15 November)

Date Brightness Start Highest point End Pass type
(mag) Time Alt. Az. Time Alt. Az. Time Alt. Az.
23 Nov 3.8 06:02:07 10° NNW 06:06:02 22° NE 06:09:56 10° E visible
24 Nov 4.2 05:08:18 10° N 05:10:45 14° NNE 05:13:13 10° ENE visible
25 Nov 3.1 05:54:51 10° NNW 05:59:29 36° NE 06:04:05 10° ESE visible
26 Nov 3.9 05:00:37 10° NNW 05:04:22 21° NE 05:08:06 10° E visible
27 Nov 4.3 04:08:04 12° NNE 04:09:03 13° NNE 04:11:10 10° NE visible
27 Nov 2.2 05:47:48 10° NNW 05:52:48 64° NE 05:57:44 10° SE visible
28 Nov 3.2 04:54:43 17° NNW 04:57:50 33° NE 05:02:20 10° ESE visible
29 Nov 3.9 04:02:20 19° NNE 04:02:41 19° NE 04:06:14 10° E visible
29 Nov 1.8 05:41:27 13° NW 05:45:59 71° SW 05:50:56 10° SSE visible
